Location: Freistadt
(48.5112°N, 14.5013°E)
Time: 21:35:26
(UTC+02:00)

M-CUBED/EXP-1 PRIME - Pass Details

Date: 04 April 2023
Orbit: 405 x 573 km, 101.7° (Epoch: 31 May)

Event Time Altitude Azimuth Distance (km) Brightness Sun altitude
Rises 03:15:40 0° 7° (N) 2,831 ? -28.9°
Reaches altitude 10° 03:18:24 10° 348° (NNW) 1,910 ? -28.6°
Enters shadow 03:19:48 15° 330° (NNW) 1,575 ? -28.5°
